Total_Precipitation_Accumulation
2.06 2.18 1.99 1.86 1.62 1.83 2.11 2.22 2.03 2.22 2.21 2.22 2.17 2.16 2.19 1.93 1.78 1.70 1.72 1.89 1.82 1.80 1.96 2.01 1.93 1.90 1.84 1.65 1.49 1.29 1.11 1.02 0.91 0.80 0.73 0.66 0.60 0.51 0.47 0.34 0.28 0.21 0.18
1.86 1.92 1.85 1.79 1.72 1.82 2.03 2.03 2.02 2.26 2.36 2.31 2.02 1.90 1.89 1.92 1.84 1.67 1.81 1.92 1.96 1.79 1.87 2.14 2.24 2.23 2.25 2.08 1.83 1.60 1.38 1.19 0.97 0.77 0.70 0.68 0.62 0.55 0.58 0.59 0.61 0.34 0.22
1.59 1.69 1.71 1.66 1.72 1.71 1.74 1.72 1.79 1.99 1.99 1.95 1.79 1.67 1.71 1.78 1.84 1.81 1.69 1.72 1.85 1.92 1.88 2.04 2.21 2.25 2.40 2.41 2.24 1.91 1.65 1.37 1.08 0.79 0.64 0.62 0.59 0.49 0.48 0.56 0.60 0.40 0.26
1.38 1.45 1.37 1.37 1.38 1.37 1.37 1.47 1.53 1.69 1.85 1.94 1.91 1.73 1.82 1.90 1.78 1.87 1.84 1.75 1.98 1.85 2.11 2.25 2.23 2.17 2.42 2.67 2.73 2.47 2.07 1.63 1.28 1.01 0.79 0.67 0.62 0.54 0.47 0.46 0.47 0.43 0.30
1.27 1.31 1.32 1.31 1.13 1.17 1.19 1.13 1.33 1.53 1.76 1.81 1.61 1.67 1.58 1.61 1.62 1.57 1.76 1.65 1.80 1.90 2.07 2.16 2.27 2.18 2.47 2.94 3.35 3.42 2.97 2.28 1.74 1.41 1.24 1.08 0.92 0.73 0.60 0.58 0.50 0.44 0.40
1.29 1.22 1.13 1.08 0.96 1.09 1.21 1.27 1.55 1.54 1.50 1.53 1.38 1.56 1.46 1.28 1.39 1.51 1.49 1.59 1.64 1.49 1.74 1.98 2.17 1.88 2.23 2.81 3.24 3.55 3.62 3.21 2.53 2.00 1.72 1.57 1.40 1.05 0.71 0.61 0.59 0.55 0.50
1.27 1.23 1.12 1.20 1.03 1.04 1.05 1.06 1.22 1.29 1.24 1.29 1.59 1.69 1.44 1.22 1.29 1.33 1.33 1.53 1.56 1.52 1.81 2.14 2.22 2.13 1.88 1.89 2.04 2.55 3.22 3.59 3.36 2.75 2.26 1.95 1.77 1.39 0.95 0.74 0.64 0.61 0.59
1.17 1.10 1.18 1.11 1.06 1.10 1.05 1.07 1.20 1.25 1.25 1.28 1.46 1.62 1.47 1.51 1.43 1.12 1.33 1.42 1.47 1.63 1.76 1.88 2.12 2.30 1.97 2.03 1.49 1.68 2.36 2.95 3.45 3.40 2.83 2.27 2.01 1.75 1.37 1.09 0.87 0.75 0.73
1.06 1.10 1.10 1.12 1.15 0.98 1.04 1.10 1.08 1.13 1.16 1.14 1.20 1.42 1.46 1.48 1.34 1.13 1.17 1.23 1.36 1.58 1.65 1.77 1.65 1.78 1.89 2.05 1.90 1.53 1.75 2.02 2.77 3.50 3.41 2.81 2.26 1.84 1.63 1.51 1.37 1.13 0.99
1.08 1.00 1.03 1.17 1.16 1.02 1.12 0.88 0.95 1.11 1.15 1.01 1.01 1.03 1.07 1.21 1.34 1.34 1.21 1.16 1.23 1.31 1.40 1.48 1.52 1.60 1.63 1.82 1.90 1.46 1.20 1.40 2.03 2.90 3.40 3.20 2.68 2.11 1.85 1.89 2.13 2.07 1.68
1.38 1.12 1.05 1.17 1.23 1.17 1.20 1.08 1.22 1.10 1.01 0.94 0.94 1.03 1.08 1.03 0.99 1.21 1.30 1.25 1.23 1.07 1.09 1.16 1.23 1.32 1.38 1.56 1.78 1.33 1.05 1.19 1.44 1.94 2.41 2.71 2.71 2.54 2.33 2.40 2.86 3.18 2.99
1.44 1.34 1.24 1.34 1.35 1.29 1.27 1.19 1.23 1.19 1.14 1.10 0.97 0.96 1.16 1.12 1.00 1.12 1.08 1.09 1.08 0.86 0.91 1.02 1.06 1.13 1.23 1.40 1.37 1.25 1.31 1.40 1.34 1.38 1.53 1.78 2.07 2.26 2.43 2.63 2.92 3.31 3.47
1.26 1.35 1.39 1.45 1.38 1.36 1.29 1.28 1.29 1.29 1.34 1.32 1.13 0.95 0.96 1.06 1.06 1.04 1.03 0.95 0.96 0.91 0.95 0.92 0.97 1.15 1.26 1.59 1.65 1.49 1.48 1.58 1.40 1.25 1.19 1.21 1.33 1.54 1.76 2.01 2.39 2.80 3.19
1.26 1.38 1.43 1.32 1.29 1.30 1.22 1.28 1.21 1.18 1.21 1.24 1.15 1.28 1.24 1.03 1.13 1.15 1.17 1.27 1.25 1.21 1.22 1.21 1.31 1.45 1.59 1.70 1.85 1.66 1.43 1.33 1.13 1.06 1.03 1.00 1.03 1.10 1.24 1.38 1.57 1.84 2.05
1.25 1.27 1.21 1.20 1.22 1.21 1.27 1.36 1.28 1.22 1.24 1.14 1.16 1.43 1.37 1.14 1.14 1.20 1.24 1.37 1.59 1.51 1.42 1.50 1.66 1.78 1.73 1.70 1.71 1.57 1.41 1.32 1.12 1.00 0.96 0.92 0.90 0.90 0.95 0.98 1.03 1.14 1.23
1.21 1.25 1.20 1.19 1.19 1.10 1.14 1.29 1.25 1.28 1.35 1.31 1.31 1.37 1.39 1.31 1.28 1.32 1.37 1.44 1.62 1.63 1.54 1.54 1.78 1.88 1.72 1.56 1.70 1.66 1.49 1.39 1.16 1.01 0.91 0.89 0.90 0.89 0.87 0.86 0.82 0.83 0.86
1.22 1.23 1.22 1.25 1.23 1.16 1.17 1.24 1.20 1.27 1.35 1.45 1.46 1.40 1.40 1.50 1.53 1.44 1.46 1.49 1.62 1.77 1.74 1.68 1.85 1.90 1.76 1.53 1.50 1.51 1.48 1.44 1.26 1.18 1.01 0.92 0.88 0.86 0.83 0.85 0.87 0.85 0.79
1.23 1.20 1.21 1.28 1.21 1.20 1.23 1.18 1.17 1.24 1.35 1.42 1.51 1.64 1.66 1.66 1.61 1.56 1.60 1.62 1.73 1.94 1.94 1.84 1.83 1.87 1.77 1.65 1.56 1.44 1.28 1.24 1.23 1.29 1.12 0.97 0.90 0.87 0.84 0.81 0.79 0.76 0.73
1.30 1.28 1.22 1.22 1.25 1.28 1.29 1.17 1.14 1.16 1.16 1.17 1.30 1.57 1.80 2.02 1.92 1.78 1.71 1.67 1.73 1.83 1.97 1.87 1.82 1.95 1.92 1.80 1.65 1.44 1.28 1.22 1.07 1.11 1.10 1.01 0.90 0.83 0.78 0.74 0.73 0.72 0.68
1.27 1.33 1.34 1.33 1.31 1.28 1.25 1.22 1.26 1.24 1.20 1.15 1.20 1.31 1.45 1.65 1.82 1.92 1.77 1.64 1.65 1.77 1.93 1.96 2.04 2.29 2.33 2.13 1.82 1.59 1.47 1.33 1.18 0.99 1.00 0.97 0.91 0.84 0.82 0.80 0.76 0.74 0.73
1.32 1.45 1.52 1.50 1.45 1.40 1.28 1.33 1.41 1.32 1.33 1.29 1.27 1.26 1.22 1.30 1.43 1.58 1.60 1.72 1.75 1.77 1.89 1.99 2.18 2.60 2.60 2.32 1.90 1.67 1.59 1.51 1.33 1.14 1.03 0.91 0.84 0.78 0.79 0.84 0.83 0.78 0.72
1.66 1.72 1.68 1.65 1.62 1.44 1.48 1.43 1.41 1.40 1.48 1.49 1.46 1.41 1.29 1.19 1.22 1.31 1.37 1.46 1.61 1.67 1.73 1.84 2.03 2.33 2.47 2.33 2.04 1.81 1.60 1.47 1.37 1.25 1.16 1.10 0.96 0.89 0.81 0.74 0.81 0.79 0.76
1.71 1.81 1.89 1.86 1.81 1.83 1.72 1.45 1.39 1.41 1.50 1.56 1.64 1.67 1.41 1.19 1.25 1.22 1.29 1.30 1.31 1.40 1.50 1.60 1.79 2.00 2.30 2.40 2.25 1.88 1.72 1.58 1.37 1.25 1.20 1.16 1.04 0.93 0.82 0.78 0.83 0.70 0.67
1.58 1.57 1.57 1.54 1.59 1.59 1.51 1.31 1.24 1.18 1.31 1.38 1.39 1.38 1.36 1.23 1.15 1.15 1.15 1.09 1.05 1.06 1.12 1.19 1.33 1.59 1.89 2.24 2.42 2.20 2.01 1.82 1.58 1.36 1.15 1.14 1.10 0.98 0.85 0.77 0.83 0.71 0.60
1.48 1.39 1.34 1.33 1.34 1.39 1.35 1.19 1.13 1.05 1.11 1.13 1.13 1.15 1.19 1.11 1.09 0.97 0.92 0.94 0.93 0.90 0.88 0.90 0.98 1.15 1.42 1.74 2.09 2.22 1.94 1.61 1.46 1.27 1.10 1.00 0.96 0.97 0.93 0.78 0.75 0.76 0.63
1.61 1.50 1.42 1.40 1.39 1.46 1.48 1.24 1.15 1.10 1.15 1.17 1.24 1.24 1.20 1.07 0.99 0.82 0.78 0.83 0.80 0.74 0.76 0.75 0.74 0.81 0.94 1.20 1.57 1.72 1.76 1.51 1.28 1.15 0.89 0.82 0.79 0.80 0.85 0.73 0.58 0.56 0.56